| time (UTC) | temp F | wind direction | speed knots | gust knots | rain 1hr in | rain 24hr in | rain mn in | humidity % | barometer mb |
| 20260506044804 | 36 | 166 | 4.3 | 6.1 | 0.00 | 0.00 | 0.00 | 80 | 1012.2 |
| 20260506044600 | 36 | 171 | 3.5 | 7.0 | 0.00 | 0.00 | 0.00 | 79 | 1012.2 |
| 20260506044304 | 36 | 168 | 4.3 | 7.0 | 0.00 | 0.00 | 0.00 | 80 | 1012.3 |
| 20260506043804 | 35 | 167 | 4.3 | 7.0 | 0.00 | 0.00 | 0.00 | 80 | 1012.3 |
| 20260506043304 | 35 | 162 | 4.3 | 7.8 | 0.00 | 0.00 | 0.00 | 80 | 1012.3 |
| 20260506043059 | 35 | 164 | 4.3 | 7.8 | 0.00 | 0.00 | 0.00 | 80 | 1012.2 |
| 20260506041804 | 34 | 167 | 5.2 | 7.8 | 0.00 | 0.00 | 0.00 | 80 | 1012.4 |
| 20260506041558 | 33 | 170 | 5.2 | 9.6 | 0.00 | 0.00 | 0.00 | 80 | 1012.2 |
| 20260506041304 | 34 | 170 | 6.1 | 7.8 | 0.00 | 0.00 | 0.00 | 80 | 1012.2 |
| 20260506040805 | 33 | 165 | 6.1 | 7.8 | 0.00 | 0.00 | 0.00 | 80 | 1012.3 |
| 20260506040304 | 33 | 162 | 6.1 | 10.4 | 0.00 | 0.00 | 0.00 | 80 | 1012.2 |
| 20260506040105 | 33 | 165 | 6.1 | 8.7 | 0.00 | 0.00 | 0.00 | 79 | 1012.2 |
| 20260506034804 | 33 | 169 | 7.0 | 10.4 | 0.00 | 0.00 | 0.00 | 79 | 1012.2 |
| 20260506034615 | 33 | 169 | 5.2 | 10.4 | 0.00 | 0.00 | 0.00 | 78 | 1012.2 |
| 20260506034304 | 34 | 161 | 4.3 | 7.0 | 0.00 | 0.00 | 0.00 | 79 | 1012.3 |
| 20260506033804 | 34 | 156 | 5.2 | 7.0 | 0.00 | 0.00 | 0.00 | 79 | 1012.2 |
| 20260506033305 | 34 | 159 | 5.2 | 8.7 | 0.00 | 0.00 | 0.00 | 79 | 1012.2 |
| 20260506033056 | 34 | 163 | 6.1 | 8.7 | 0.00 | 0.00 | 0.00 | 78 | 1012.1 |
| 20260506031605 | 34 | 171 | 7.0 | 9.6 | 0.00 | 0.00 | 0.00 | 79 | 1012.1 |
| 20260506031304 | 35 | 177 | 7.8 | 8.7 | 0.00 | 0.00 | 0.00 | 80 | 1012.2 |
| 20260506030804 | 35 | 168 | 7.0 | 8.7 | 0.00 | 0.00 | 0.00 | 80 | 1012.1 |
| 20260506030304 | 35 | 167 | 8.7 | 10.4 | 0.00 | 0.00 | 0.00 | 80 | 1012.1 |
| 20260506024557 | 34 | 167 | 6.1 | 8.7 | 0.00 | 0.00 | 0.00 | 80 | 1012.1 |
| 20260506024305 | 34 | 164 | 6.1 | 8.7 | 0.00 | 0.00 | 0.00 | 81 | 1012.0 |
| 20260506023804 | 34 | 161 | 6.1 | 8.7 | 0.00 | 0.00 | 0.00 | 81 | 1012.2 |
| 20260506023304 | 34 | 165 | 7.8 | 10.4 | 0.00 | 0.00 | 0.00 | 81 | 1012.1 |
| 20260506023059 | 33 | 168 | 7.8 | 10.4 | 0.00 | 0.00 | 0.00 | 81 | 1012.1 |
| 20260506021804 | 33 | 171 | 8.7 | 10.4 | 0.00 | 0.00 | 0.00 | 82 | 1012.2 |
| 20260506021600 | 33 | 169 | 7.0 | 9.6 | 0.00 | 0.00 | 0.00 | 81 | 1012.2 |
| 20260506021304 | 33 | 164 | 6.1 | 7.8 | 0.00 | 0.00 | 0.00 | 81 | 1012.2 |
| 20260506020804 | 33 | 165 | 6.1 | 7.8 | 0.00 | 0.00 | 0.00 | 81 | 1012.2 |
| 20260506014804 | 33 | 184 | 8.7 | 10.4 | 0.00 | 0.00 | 0.00 | 81 | 1012.2 |
| 20260506014557 | 33 | 179 | 7.0 | 9.6 | 0.00 | 0.00 | 0.00 | 81 | 1012.1 |
| 20260506014304 | 33 | 168 | 6.1 | 7.0 | 0.00 | 0.00 | 0.00 | 81 | 1012.1 |
| 20260506013059 | 33 | 140 | 3.5 | 5.2 | 0.00 | 0.00 | 0.00 | 80 | 1012.0 |
| 20260506011805 | 33 | 136 | 4.3 | 7.0 | 0.00 | 0.00 | 0.00 | 80 | 1012.1 |
| 20260506011606 | 33 | 129 | 2.6 | 7.8 | 0.00 | 0.00 | 0.00 | 80 | 1011.9 |
| 20260506011304 | 33 | 144 | 5.2 | 7.8 | 0.00 | 0.00 | 0.00 | 80 | 1012.0 |
| 20260506010804 | 33 | 161 | 7.0 | 7.8 | 0.00 | 0.00 | 0.00 | 80 | 1011.9 |
| 20260506010304 | 34 | 151 | 5.2 | 6.1 | 0.00 | 0.00 | 0.00 | 80 | 1012.0 |
| 20260506010059 | 33 | 151 | 5.2 | 6.1 | 0.00 | 0.00 | 0.00 | 80 | 1011.9 |
| 20260506004805 | 34 | 132 | 5.2 | 7.8 | 0.00 | 0.00 | 0.00 | 80 | 1012.0 |
| 20260506004558 | 33 | 130 | 5.2 | 7.8 | 0.00 | 0.00 | 0.00 | 79 | 1012.0 |
| 20260506004304 | 34 | 128 | 4.3 | 7.0 | 0.00 | 0.00 | 0.00 | 80 | 1012.0 |
| 20260506003304 | 34 | 142 | 1.7 | 7.0 | 0.00 | 0.00 | 0.00 | 80 | 1011.9 |
| 20260506003056 | 34 | 143 | 1.7 | 6.1 | 0.00 | 0.00 | 0.00 | 79 | 1011.9 |
| 20260506001804 | 34 | 128 | 4.3 | 7.0 | 0.00 | 0.00 | 0.00 | 79 | 1012.0 |
| 20260506001559 | 34 | 103 | 1.7 | 6.1 | 0.00 | 0.00 | 0.00 | 79 | 1011.8 |
| 20260506001304 | 34 | 91 | 2.6 | 2.6 | 0.00 | 0.00 | 0.00 | 79 | 1011.9 |
| 20260506000304 | 34 | 115 | 7.8 | 10.4 | 0.00 | 0.00 | 0.00 | 78 | 1011.9 |
| 20260505234804 | 34 | 111 | 4.3 | 4.3 | 0.00 | 0.00 | 0.00 | 78 | 1012.0 |
| 20260505234604 | 34 | 111 | 3.5 | 7.8 | 0.00 | 0.00 | 0.00 | 78 | 1011.9 |
| 20260505234304 | 34 | 111 | 4.3 | 6.1 | 0.00 | 0.00 | 0.00 | 78 | 1012.0 |
| 20260505233804 | 35 | 111 | 6.1 | 7.8 | 0.00 | 0.00 | 0.00 | 78 | 1012.0 |
| 20260505233304 | 35 | 114 | 7.0 | 7.8 | 0.00 | 0.00 | 0.00 | 78 | 1012.0 |
| 20260505233110 | 34 | 115 | 6.1 | 7.0 | 0.00 | 0.00 | 0.00 | 77 | 1011.9 |
| 20260505231804 | 35 | 91 | 5.2 | 5.2 | 0.00 | 0.00 | 0.00 | 77 | 1012.0 |
| 20260505231605 | 35 | 91 | 4.3 | 7.0 | 0.00 | 0.00 | 0.00 | 77 | 1012.0 |
| 20260505231304 | 35 | 91 | 5.2 | 7.0 | 0.00 | 0.00 | 0.00 | 77 | 1012.0 |
| 20260505230304 | 35 | 91 | 2.6 | 6.1 | 0.00 | 0.00 | 0.00 | 77 | 1012.1 |
| 20260505230059 | 35 | 91 | 2.6 | 6.1 | 0.00 | 0.00 | 0.00 | 77 | 1012.0 |
| 20260505224804 | 36 | 91 | 4.3 | 5.2 | 0.00 | 0.00 | 0.00 | 77 | 1012.3 |
| 20260505224558 | 35 | 91 | 3.5 | 6.1 | 0.00 | 0.00 | 0.00 | 76 | 1012.2 |
| 20260505224304 | 36 | 91 | 5.2 | 6.1 | 0.00 | 0.00 | 0.00 | 76 | 1012.2 |
| 20260505223804 | 36 | 91 | 5.2 | 6.1 | 0.00 | 0.00 | 0.00 | 76 | 1012.3 |
| 20260505223304 | 36 | 91 | 2.6 | 5.2 | 0.00 | 0.00 | 0.00 | 76 | 1012.3 |
| 20260505223057 | 36 | 91 | 3.5 | 5.2 | 0.00 | 0.00 | 0.00 | 76 | 1012.3 |
| 20260505221804 | 37 | 69 | 4.3 | 6.1 | 0.00 | 0.00 | 0.00 | 76 | 1012.3 |
| 20260505221556 | 36 | 52 | 4.3 | 7.0 | 0.00 | 0.00 | 0.00 | 76 | 1012.2 |
| 20260505221304 | 37 | 59 | 6.1 | 7.0 | 0.00 | 0.00 | 0.00 | 76 | 1012.3 |
| 20260505220828 | 37 | 73 | 7.0 | 7.0 | 0.00 | 0.00 | 0.00 | 75 | 1012.3 |
| 20260505220304 | 37 | 73 | 5.2 | 6.1 | 0.00 | 0.00 | 0.00 | 75 | 1012.2 |
| 20260505220057 | 36 | 73 | 4.3 | 6.1 | 0.00 | 0.00 | 0.00 | 75 | 1012.1 |
| 20260505214600 | 37 | 69 | 3.5 | 7.0 | 0.00 | 0.00 | 0.00 | 74 | 1012.2 |
| 20260505214304 | 37 | 63 | 4.3 | 6.1 | 0.00 | 0.00 | 0.00 | 75 | 1012.2 |
| 20260505213804 | 37 | 85 | 5.2 | 7.0 | 0.00 | 0.00 | 0.00 | 75 | 1012.3 |
| 20260505213305 | 38 | 97 | 4.3 | 6.1 | 0.00 | 0.00 | 0.00 | 74 | 1012.1 |
| 20260505213059 | 37 | 88 | 3.5 | 6.1 | 0.00 | 0.00 | 0.00 | 74 | 1012.0 |
| 20260505211804 | 38 | 76 | 5.2 | 6.1 | 0.00 | 0.00 | 0.00 | 74 | 1012.0 |
| 20260505211610 | 38 | 68 | 5.2 | 7.0 | 0.00 | 0.00 | 0.00 | 73 | 1011.9 |
| 20260505211304 | 38 | 75 | 6.1 | 7.0 | 0.00 | 0.00 | 0.00 | 73 | 1012.0 |
| 20260505210804 | 38 | 88 | 5.2 | 6.1 | 0.00 | 0.00 | 0.00 | 73 | 1011.9 |
| 20260505210304 | 39 | 89 | 3.5 | 8.7 | 0.00 | 0.00 | 0.00 | 72 | 1011.9 |
| 20260505204603 | 39 | 42 | 4.3 | 7.8 | 0.00 | 0.00 | 0.00 | 71 | 1011.7 |
| 20260505204304 | 40 | 40 | 5.2 | 7.8 | 0.00 | 0.00 | 0.00 | 70 | 1011.9 |
| 20260505203804 | 40 | 39 | 6.1 | 7.8 | 0.00 | 0.00 | 0.00 | 70 | 1011.8 |
| 20260505203304 | 40 | 35 | 6.1 | 7.8 | 0.00 | 0.00 | 0.00 | 69 | 1011.8 |
| 20260505203100 | 40 | 35 | 5.2 | 7.8 | 0.00 | 0.00 | 0.00 | 69 | 1011.7 |
| 20260505201601 | 40 | 48 | 5.2 | 7.8 | 0.00 | 0.00 | 0.00 | 67 | 1011.7 |
| 20260505201307 | 41 | 38 | 5.2 | 6.1 | 0.00 | 0.00 | 0.00 | 67 | 1011.7 |
| 20260505200804 | 42 | 40 | 5.2 | 6.1 | 0.00 | 0.00 | 0.00 | 66 | 1011.7 |
| 20260505200304 | 42 | 46 | 5.2 | 7.8 | 0.00 | 0.00 | 0.00 | 65 | 1011.8 |
| 20260505200100 | 42 | 48 | 5.2 | 7.8 | 0.00 | 0.00 | 0.00 | 65 | 1011.7 |
| 20260505194804 | 44 | 24 | 3.5 | 4.3 | 0.00 | 0.17 | 0.00 | 61 | 1011.7 |
| 20260505194609 | 44 | 21 | 2.6 | 4.3 | 0.00 | 0.00 | 0.00 | 60 | 1011.6 |
| 20260505194304 | 45 | 34 | 2.6 | 2.6 | 0.00 | 0.17 | 0.00 | 59 | 1011.6 |
| 20260505193804 | 45 | 34 | 2.6 | 4.3 | 0.00 | 0.17 | 0.00 | 59 | 1011.7 |
| 20260505193304 | 46 | 23 | 3.5 | 6.1 | 0.00 | 0.17 | 0.00 | 58 | 1011.6 |
| 20260505193058 | 45 | 19 | 2.6 | 6.1 | 0.00 | 0.00 | 0.00 | 57 | 1011.6 |
| 20260505191804 | 46 | 26 | 4.3 | 6.1 | 0.00 | 0.35 | 0.00 | 53 | 1011.5 |
| 20260505191556 | 46 | 31 | 4.3 | 7.8 | 0.00 | 0.00 | 0.00 | 52 | 1011.5 |
| 20260505191304 | 46 | 37 | 6.1 | 7.8 | 0.00 | 0.35 | 0.00 | 51 | 1011.6 |
| 20260505190804 | 47 | 34 | 4.3 | 6.1 | 0.00 | 0.35 | 0.00 | 51 | 1011.6 |
| 20260505190304 | 47 | 38 | 4.3 | 7.0 | 0.00 | 0.35 | 0.00 | 50 | 1011.5 |
| 20260505190055 | 47 | 34 | 4.3 | 7.0 | 0.00 | 0.00 | 0.00 | 50 | 1011.5 |
| 20260505184804 | 48 | 41 | 2.6 | 4.3 | 0.00 | 0.35 | 0.00 | 46 | 1011.6 |
| 20260505184557 | 48 | 36 | 2.6 | 5.2 | 0.00 | 0.00 | 0.00 | 46 | 1011.4 |
| 20260505184304 | 49 | 34 | 2.6 | 5.2 | 0.00 | 0.35 | 0.00 | 46 | 1011.5 |
| 20260505183805 | 49 | 33 | 4.3 | 5.2 | 0.00 | 0.35 | 0.00 | 44 | 1011.5 |
| 20260505183304 | 49 | 45 | 5.2 | 8.7 | 0.00 | 0.35 | 0.00 | 45 | 1011.5 |
| 20260505183058 | 49 | 40 | 3.5 | 8.7 | 0.00 | 0.00 | 0.00 | 45 | 1011.5 |
| 20260505181804 | 50 | 30 | 3.5 | 8.7 | 0.00 | 0.52 | 0.00 | 45 | 1011.5 |
| 20260505181600 | 50 | 29 | 5.2 | 8.7 | 0.00 | 0.00 | 0.00 | 44 | 1011.4 |
| 20260505181304 | 50 | 14 | 5.2 | 8.7 | 0.00 | 0.52 | 0.00 | 44 | 1011.5 |
| 20260505180804 | 50 | 25 | 4.3 | 8.7 | 0.00 | 0.52 | 0.00 | 45 | 1011.4 |
| 20260505180304 | 50 | 27 | 6.1 | 10.4 | 0.00 | 0.52 | 0.00 | 44 | 1011.4 |
| 20260505180058 | 50 | 25 | 4.3 | 9.6 | 0.00 | 0.00 | 0.00 | 43 | 1011.3 |
| 20260505174806 | 50 | 15 | 5.2 | 10.4 | 0.00 | 0.52 | 0.00 | 44 | 1011.3 |
| 20260505174602 | 50 | 37 | 5.2 | 9.6 | 0.00 | 0.00 | 0.00 | 43 | 1011.3 |
| 20260505174304 | 50 | 38 | 6.1 | 8.7 | 0.00 | 0.52 | 0.00 | 44 | 1011.3 |
| 20260505173804 | 50 | 10 | 4.3 | 7.8 | 0.00 | 0.52 | 0.00 | 48 | 1011.2 |
| 20260505173304 | 50 | 24 | 6.1 | 10.4 | 0.00 | 0.52 | 0.00 | 48 | 1011.3 |
| 20260505173100 | 50 | 17 | 6.1 | 9.6 | 0.00 | 0.00 | 0.00 | 47 | 1011.2 |
| 20260505171804 | 50 | 23 | 5.2 | 7.0 | 0.00 | 0.69 | 0.00 | 49 | 1011.3 |
| 20260505171606 | 49 | 22 | 3.5 | 7.0 | 0.00 | 0.00 | 0.00 | 49 | 1011.2 |
| 20260505171304 | 50 | 356 | 4.3 | 7.0 | 0.00 | 0.69 | 0.00 | 48 | 1011.2 |
| 20260505170804 | 50 | 35 | 4.3 | 6.1 | 0.00 | 0.69 | 0.00 | 48 | 1011.2 |
| 20260505170304 | 50 | 27 | 4.3 | 7.0 | 0.00 | 0.69 | 0.00 | 48 | 1011.2 |
| 20260505170059 | 50 | 38 | 2.6 | 7.0 | 0.00 | 0.00 | 0.00 | 47 | 1011.1 |
| 20260505164804 | 49 | 28 | 4.3 | 8.7 | 0.00 | 0.69 | 0.00 | 50 | 1011.4 |
| 20260505164622 | 49 | 8 | 5.2 | 8.7 | 0.00 | 0.00 | 0.00 | 50 | 1011.4 |
| 20260505164304 | 49 | 17 | 4.3 | 8.7 | 0.00 | 0.69 | 0.00 | 50 | 1011.5 |
| 20260505163804 | 49 | 17 | 4.3 | 7.8 | 0.00 | 0.69 | 0.00 | 50 | 1011.5 |
| 20260505163304 | 50 | 34 | 5.2 | 10.4 | 0.00 | 0.69 | 0.00 | 51 | 1011.5 |
| 20260505163107 | 50 | 17 | 5.2 | 10.4 | 0.00 | 0.00 | 0.00 | 50 | 1011.5 |
| 20260505161616 | 49 | 16 | 6.1 | 12.2 | 0.00 | 0.00 | 0.00 | 50 | 1011.4 |
| 20260505161304 | 50 | 21 | 7.8 | 10.4 | 0.00 | 0.69 | 0.00 | 53 | 1011.5 |
| 20260505160804 | 50 | 30 | 6.1 | 10.4 | 0.00 | 0.69 | 0.00 | 51 | 1011.6 |
| 20260505160305 | 50 | 29 | 6.1 | 11.3 | 0.00 | 0.69 | 0.00 | 51 | 1011.6 |
| 20260505160110 | 50 | 39 | 7.8 | 11.3 | 0.00 | 0.00 | 0.00 | 50 | 1011.6 |
| 20260505153304 | 49 | 42 | 6.1 | 11.3 | 0.00 | 0.69 | 0.00 | 53 | 1011.4 |
| 20260505153101 | 49 | 38 | 7.0 | 11.3 | 0.00 | 0.00 | 0.00 | 53 | 1011.4 |
| 20260505151804 | 49 | 1 | 4.3 | 10.4 | 0.00 | 0.69 | 0.00 | 53 | 1011.4 |
| 20260505151604 | 49 | 340 | 6.1 | 11.3 | 0.00 | 0.00 | 0.00 | 52 | 1011.4 |
| 20260505150804 | 50 | 35 | 8.7 | 11.3 | 0.00 | 0.69 | 0.00 | 54 | 1011.6 |
| 20260505150304 | 50 | 14 | 7.8 | 12.2 | 0.00 | 0.69 | 0.00 | 54 | 1011.6 |
| 20260505140305 | 50 | 21 | 6.1 | 13.0 | 0.00 | 0.69 | 0.00 | 56 | 1011.8 |
| 20260505130304 | 50 | 19 | 10.4 | 13.9 | 0.00 | 1.21 | 0.00 | 57 | 1011.9 |
| 20260505130113 | 49 | 8 | 8.7 | 13.9 | 0.00 | 0.00 | 0.00 | 56 | 1011.9 |
| 20260505124804 | 50 | 22 | 7.8 | 13.9 | 0.00 | 1.21 | 0.00 | 55 | 1011.8 |
| 20260505124615 | 49 | 27 | 10.4 | 13.9 | 0.00 | 0.00 | 0.00 | 57 | 1011.7 |
| 20260505124304 | 49 | 23 | 8.7 | 13.9 | 0.00 | 1.21 | 0.00 | 56 | 1011.8 |
| 20260505123306 | 50 | 20 | 7.8 | 12.2 | 0.00 | 1.21 | 0.00 | 55 | 1011.8 |
| 20260505123101 | 49 | 38 | 7.8 | 12.2 | 0.00 | 0.00 | 0.00 | 54 | 1011.7 |
| 20260505121804 | 50 | 13 | 8.7 | 13.0 | 0.00 | 1.21 | 0.00 | 55 | 1011.7 |
| 20260505121559 | 49 | 6 | 9.6 | 13.9 | 0.00 | 0.00 | 0.00 | 53 | 1011.7 |
| 20260505121304 | 49 | 11 | 10.4 | 13.9 | 0.00 | 1.21 | 0.00 | 54 | 1011.8 |
| 20260505120804 | 50 | 11 | 10.4 | 13.0 | 0.00 | 1.21 | 0.00 | 54 | 1011.8 |
| 20260505120304 | 50 | 14 | 7.8 | 15.6 | 0.00 | 1.21 | 0.00 | 55 | 1011.8 |
| 20260505120111 | 50 | 44 | 8.7 | 15.6 | 0.00 | 0.00 | 0.00 | 55 | 1011.7 |
| 20260505114804 | 50 | 22 | 11.3 | 15.6 | 0.00 | 1.21 | 0.00 | 54 | 1011.7 |
| 20260505114601 | 49 | 25 | 10.4 | 14.8 | 0.00 | 0.00 | 0.00 | 52 | 1011.6 |
| 20260505114304 | 50 | 14 | 11.3 | 14.8 | 0.00 | 1.21 | 0.00 | 53 | 1011.6 |
| 20260505113804 | 50 | 17 | 8.7 | 13.0 | 0.00 | 1.21 | 0.00 | 56 | 1011.6 |
| 20260505113304 | 49 | 12 | 10.4 | 13.9 | 0.00 | 1.21 | 0.00 | 55 | 1011.5 |
| 20260505113105 | 48 | 11 | 7.0 | 13.9 | 0.00 | 0.00 | 0.00 | 54 | 1011.5 |
| 20260505111804 | 49 | 36 | 9.6 | 13.9 | 0.00 | 1.21 | 0.00 | 55 | 1011.5 |
| 20260505111557 | 49 | 13 | 8.7 | 12.2 | 0.00 | 0.00 | 0.00 | 54 | 1011.4 |
| 20260505111304 | 49 | 5 | 8.7 | 12.2 | 0.00 | 1.21 | 0.00 | 54 | 1011.6 |
| 20260505110304 | 49 | 16 | 9.6 | 12.2 | 0.00 | 1.21 | 0.00 | 54 | 1011.5 |
| 20260505110117 | 48 | 357 | 7.8 | 12.2 | 0.00 | 0.00 | 0.00 | 53 | 1011.4 |
| 20260505101601 | 48 | 14 | 7.8 | 16.5 | 0.00 | 0.00 | 0.00 | 51 | 1011.7 |
| 20260505101304 | 49 | 22 | 8.7 | 17.4 | 0.00 | 1.39 | 0.00 | 51 | 1011.6 |
| 20260505100804 | 49 | 24 | 12.2 | 17.4 | 0.00 | 1.39 | 0.00 | 53 | 1011.5 |
| 20260505100304 | 49 | 19 | 13.0 | 15.6 | 0.00 | 1.39 | 0.00 | 50 | 1011.6 |
| 20260505100058 | 49 | 22 | 8.7 | 15.6 | 0.00 | 0.00 | 0.00 | 51 | 1011.5 |
| 20260505094804 | 49 | 22 | 12.2 | 15.6 | 0.00 | 1.39 | 0.00 | 52 | 1011.5 |
| 20260505094557 | 49 | 11 | 10.4 | 15.6 | 0.00 | 0.00 | 0.00 | 52 | 1011.4 |
| 20260505094304 | 49 | 14 | 6.1 | 14.8 | 0.00 | 1.39 | 0.00 | 54 | 1011.4 |
| 20260505093304 | 49 | 18 | 6.1 | 14.8 | 0.00 | 1.39 | 0.00 | 54 | 1011.2 |
| 20260505093107 | 49 | 357 | 7.8 | 13.0 | 0.00 | 0.00 | 0.00 | 53 | 1011.1 |
| 20260505091556 | 49 | 22 | 7.0 | 11.3 | 0.00 | 0.00 | 0.00 | 51 | 1010.9 |
| 20260505091304 | 49 | 13 | 7.8 | 11.3 | 0.00 | 1.56 | 0.00 | 53 | 1010.9 |
| 20260505090804 | 49 | 18 | 7.8 | 10.4 | 0.00 | 1.56 | 0.00 | 52 | 1011.0 |
| 20260505090304 | 49 | 8 | 8.7 | 13.0 | 0.00 | 1.56 | 0.00 | 52 | 1011.0 |
| 20260505090056 | 48 | 10 | 7.8 | 13.0 | 0.00 | 0.00 | 0.00 | 52 | 1010.9 |
| 20260505084804 | 49 | 41 | 10.4 | 13.9 | 0.00 | 1.56 | 0.00 | 51 | 1011.1 |
| 20260505084555 | 48 | 19 | 8.7 | 14.8 | 0.00 | 0.00 | 0.00 | 51 | 1011.0 |
| 20260505084304 | 49 | 7 | 8.7 | 14.8 | 0.00 | 1.56 | 0.00 | 52 | 1011.0 |
| 20260505083305 | 49 | 13 | 10.4 | 17.4 | 0.00 | 1.56 | 0.00 | 53 | 1010.9 |
| 20260505083058 | 49 | 25 | 9.6 | 16.5 | 0.00 | 0.00 | 0.00 | 52 | 1011.0 |
| 20260505081613 | 48 | 55 | 6.1 | 14.8 | 0.00 | 0.00 | 0.00 | 56 | 1010.9 |
| 20260505081304 | 49 | 22 | 10.4 | 14.8 | 0.00 | 1.56 | 0.00 | 56 | 1010.8 |
| 20260505080804 | 49 | 26 | 10.4 | 13.9 | 0.00 | 1.56 | 0.00 | 56 | 1010.8 |
| 20260505080304 | 49 | 26 | 10.4 | 13.9 | 0.00 | 1.73 | 0.00 | 54 | 1010.8 |
| 20260505080107 | 48 | 28 | 9.6 | 13.9 | 0.00 | 0.00 | 0.00 | 53 | 1010.7 |
| 20260505074804 | 49 | 20 | 7.0 | 12.2 | 0.00 | 1.91 | 0.00 | 57 | 1010.6 |
| 20260505074555 | 49 | 30 | 7.0 | 13.9 | 0.00 | 0.00 | 0.00 | 56 | 1010.5 |
| 20260505074304 | 49 | 22 | 8.7 | 13.9 | 0.00 | 1.91 | 0.00 | 57 | 1010.6 |
| 20260505073804 | 49 | 13 | 9.6 | 12.2 | 0.00 | 1.91 | 0.00 | 58 | 1010.6 |
| 20260505073304 | 49 | 20 | 9.6 | 13.9 | 0.00 | 1.91 | 0.00 | 58 | 1010.5 |
| 20260505073058 | 48 | 27 | 7.0 | 12.2 | 0.00 | 0.00 | 0.00 | 57 | 1010.5 |
| 20260505071804 | 48 | 41 | 7.0 | 10.4 | 0.00 | 1.91 | 0.00 | 59 | 1010.4 |
| 20260505071610 | 48 | 17 | 6.1 | 12.2 | 0.00 | 0.00 | 0.00 | 59 | 1010.3 |
| 20260505071304 | 48 | 43 | 6.1 | 11.3 | 0.00 | 1.91 | 0.00 | 59 | 1010.2 |
| 20260505070804 | 48 | 62 | 9.6 | 12.2 | 0.00 | 1.91 | 0.00 | 60 | 1010.4 |
| 20260505070305 | 49 | 32 | 7.0 | 13.0 | 0.00 | 1.91 | 0.00 | 59 | 1010.4 |
| 20260505070110 | 49 | 43 | 7.0 | 13.0 | 0.00 | 0.00 | 0.00 | 60 | 1010.2 |
| 20260505064804 | 48 | 20 | 5.2 | 10.4 | 0.00 | 1.91 | 0.00 | 60 | 1010.2 |
| 20260505064559 | 48 | 358 | 6.1 | 11.3 | 0.00 | 0.00 | 0.00 | 60 | 1010.2 |
| 20260505064304 | 48 | 53 | 7.8 | 10.4 | 0.00 | 1.91 | 0.00 | 59 | 1010.2 |
| 20260505063804 | 49 | 34 | 7.8 | 11.3 | 0.00 | 1.91 | 0.00 | 61 | 1010.1 |
| 20260505063306 | 49 | 78 | 6.1 | 13.0 | 0.00 | 1.91 | 0.00 | 60 | 1010.1 |
| 20260505063056 | 48 | 110 | 6.1 | 13.0 | 0.00 | 0.00 | 0.00 | 60 | 1010.0 |
| 20260505061601 | 48 | 24 | 9.6 | 13.0 | 0.00 | 0.00 | 0.00 | 61 | 1010.1 |
| 20260505061304 | 48 | 38 | 7.8 | 13.0 | 0.00 | 1.91 | 0.00 | 61 | 1010.0 |
| 20260505060805 | 48 | 34 | 10.4 | 18.2 | 0.00 | 1.91 | 0.00 | 61 | 1010.0 |
| 20260505060059 | 48 | 35 | 7.8 | 18.2 | 0.00 | 0.00 | 0.00 | 61 | 1009.9 |
| 20260505054804 | 48 | 49 | 11.3 | 15.6 | 0.00 | 1.91 | 0.00 | 64 | 1009.9 |
| 20260505054559 | 47 | 67 | 12.2 | 14.8 | 0.00 | 0.00 | 0.00 | 63 | 1009.8 |
| 20260505054305 | 48 | 51 | 11.3 | 14.8 | 0.00 | 1.91 | 0.00 | 64 | 1010.0 |
| 20260505053804 | 48 | 55 | 11.3 | 14.8 | 0.00 | 1.91 | 0.00 | 65 | 1009.8 |
| 20260505053305 | 48 | 50 | 10.4 | 17.4 | 0.00 | 2.08 | 0.00 | 65 | 1009.9 |
| 20260505053105 | 47 | 52 | 9.6 | 16.5 | 0.00 | 0.00 | 0.00 | 65 | 1009.8 |
| 20260505051557 | 47 | 45 | 7.0 | 17.4 | 0.00 | 0.00 | 0.00 | 65 | 1009.7 |
| 20260505051304 | 47 | 48 | 10.4 | 14.8 | 0.00 | 2.08 | 0.00 | 67 | 1009.8 |
| 20260505050804 | 47 | 37 | 11.3 | 15.6 | 0.00 | 2.08 | 0.00 | 68 | 1009.6 |
| 20260505050305 | 47 | 48 | 8.7 | 15.6 | 0.00 | 2.08 | 0.00 | 69 | 1009.6 |